Home   Weather   Tarn Taran Sahib   Past weeks

Flag for India Past Weather in Tarn Taran Sahib, Punjab, India — Yesterday and Last 2 Weeks

64 °F


Feels Like: 64 °F
Forecast: 61 / 87 °F
Wind: No wind

Location: Amritsar Airport

Current Time: Oct 28, 2016 at 12:20:36 AM

Latest Report: Oct 27, 2016 at 11:30 PM

Visibility: 1 mi

Pressure: 29.98 "Hg

Humidity: 100%

Dew Point: 64 °F

Location of Tarn Taran SahibLocation

Past Weather in Tarn Taran Sahib — Graph


Tarn Taran Sahib Temperature Yesterday

Maximum temperature yesterday: 88 °F (at 2:30 PM)
Minimum temperature yesterday: 61 °F (at 7:00 AM)
Average temperature yesterday: 73 °F

High & Low Weather Summary for the Past Weeks

High91 °F (Oct 13, 2:00 PM)100% (Oct 12, 11:00 PM)30.07 "Hg (Oct 12, 11:00 PM)
Low61 °F (Oct 22, 6:00 AM)23% (Oct 18, 3:30 PM)29.71 "Hg (Oct 20, 2:30 PM)
Average75 °F73%29.84 "Hg
* Reported Oct 12 10:30 PM — Oct 27 11:00 PM, Tarn Taran Sahib, Weather by CustomWeather, © 2016

Note: Actual official high and low records may vary slightly from our data, if they occured in-between our weather recording intervals... More about our weather records


Tarn Taran Sahib Weather History for the Previous 24 Hours

Scroll right to see more
Time TempWeatherWind HumidityBarometerVisibility
11:00 PM
Thu, Oct 27
66 °FFog.2 mph100%29.98 "Hg1 mi
10:30 PM66 °FFog.No wind100%29.98 "Hg1 mi
10:00 PM66 °FFog.No wind100%29.98 "Hg1 mi
9:30 PM68 °FFog.No wind100%29.98 "Hg1 mi
9:00 PM68 °FFog.No wind94%29.98 "Hg1 mi
8:30 PM70 °FFog.No wind83%29.98 "Hg1 mi
8:00 PM72 °FHaze.No wind73%29.98 "Hg1 mi
7:30 PM73 °FHaze.No wind69%29.98 "Hg1 mi
7:00 PM73 °FHaze.No wind65%29.95 "Hg1 mi
6:30 PM75 °FHaze.No wind61%29.95 "Hg1 mi
6:00 PM77 °FHaze.No wind57%29.95 "Hg2 mi
5:30 PM81 °FHaze.No wind48%29.95 "Hg2 mi
5:00 PM82 °FClear.2 mph45%29.95 "Hg2 mi
4:30 PM86 °FClear.7 mph38%29.95 "Hg2 mi
4:00 PM86 °FClear.6 mph43%29.95 "Hg2 mi
3:30 PM86 °FClear.8 mph43%29.95 "Hg2 mi
3:00 PM88 °FClear.8 mph35%29.98 "Hg2 mi
2:30 PM88 °FClear.10 mph38%29.98 "Hg2 mi
2:00 PM86 °FClear.10 mph38%29.98 "Hg2 mi
1:30 PM86 °FClear.7 mph40%30.01 "Hg2 mi
1:00 PM86 °FClear.7 mph43%30.01 "Hg2 mi
12:30 PM84 °FClear.7 mph45%30.04 "Hg2 mi
12:00 PM82 °FClear.5 mph51%30.04 "Hg2 mi
11:30 AM82 °FHaze.6 mph51%30.04 "Hg2 mi
11:00 AM81 °FHaze.6 mph51%30.07 "Hg1 mi
10:30 AM79 °FHaze.5 mph61%30.07 "Hg1 mi
10:00 AM77 °FHaze.7 mph65%30.07 "Hg1 mi
9:30 AM75 °FFog.2 mph74%30.07 "Hg1 mi
9:00 AM72 °FFog.No wind94%30.04 "Hg1 mi
8:30 AM66 °FFog.2 mph100%30.04 "Hg1 mi
8:00 AM63 °FFog.No wind100%30.04 "Hg1 mi
7:30 AM61 °FFog.No wind100%30.01 "Hg1 mi
7:00 AM61 °FFog.No wind100%30.01 "Hg1 mi
6:30 AM63 °FFog.No wind100%30.01 "Hg1 mi
6:00 AM63 °FFog.No wind100%29.98 "Hg1 mi
5:30 AM63 °FFog.No wind100%29.98 "Hg1 mi
5:00 AM63 °FFog.No wind100%29.98 "Hg1 mi
4:30 AM63 °FFog.No wind100%29.98 "Hg1 mi
4:00 AM63 °FFog.No wind100%29.98 "Hg1 mi
3:00 AM63 °FFog.No wind100%29.98 "Hg1 mi
2:30 AM63 °FFog.No wind100%29.98 "Hg1 mi
2:00 AM64 °FFog.No wind100%29.98 "Hg1 mi
1:30 AM64 °FFog.No wind100%29.98 "Hg1 mi
1:00 AM64 °FFog.No wind100%29.98 "Hg1 mi
12:30 AM64 °FFog.No wind100%29.98 "Hg1 mi
12:00 AM66 °FFog.No wind100%29.98 "Hg1 mi
Weather by CustomWeather, © 2016

See weather overviewHow to use our weather pages